SL-16 DEB, 43375

Orbit data source: Space-Track

SL-16 DEB, 43375 is space debris in LEO originally from a launch on Fri, 29 Jun 2007 UTC launched from the Tyuratam Missile And Space Complex (TTMTR). Debris objects in space refer to the collection of defunct objects orbiting the Earth. Examples of debris include non-operational satellites, rocket bodies, and fragments generated from explosions, collisions, or faulty payload assembly.

Loading next visibility...
Identifier
43375, 2007-029S
Orbit
LEO
Country
Flag of CISCIS
Related business
Manufacturer
Yuzhnoe
Mission
Spacecraft
Bus & Motor
Unknown
Mass
Unknown
Launch date (UTC)
2007-06-29 (19 years ago)
Launch vehicle
Unknown
Launch site
Tyuratam Missile And Space Complex (TTMTR)
Object type
Payload
Rocket body
Debris
Shape & HBR
Unknown shape, 0.1 m
Radar Cross Section
Small (<0.1 m²)

Expand to show TLE details & history
Last TLE update: 3 days ago

TLE from 3 days ago
0 SL-16 DEB
1 43375U 07029S   26169.99365487  .00001851  00000-0  88170-3 0  9997
2 43375  70.8863 263.6355 0102503 326.2812 212.0795 14.17918636644366
Epoch: 2026-06-18T23:50Z
TLE epoch observation values (Epoch: 2026-06-18T23:50:51.780Z)
Latitude
2.03848°
Longitude
177.98769°
Altitude
897.4 km
Speed
7.371 km/s
True Right ascension
05h 31m 43s
True Declination
2° 01' 36"
Sunlit
Object was in daylight at epoch
Visualization orbit readout
Latitude
Unknown
Longitude
Unknown
Altitude
Unknown
Speed
Unknown
Apparent Right ascension
Unknown
Apparent Declination
Unknown
Sunlit
N/A
Visualization observer readout
Local Sidereal Time
21:35:50
Azimuth
Unknown
Elevation
Unknown
Doppler factor
Unknown
Orbital elements
Apogee altitude
904.222 km
Perigee altitude
756.444 km
Semi-major axis
7,208.47 km
Eccentricity
0.01025
Inclination
70.8863°
RAAN
263.6355°
Arg. of periapsis
326.2812°
True anomaly
211.46239°
Mean anomaly
212.0795°
Eccentric anomaly
211.77028°
Mean motion
3.54632 °/min
Orbital period
101.51 mins
BSTAR
0.0008817
Loading maneuver chart data...
Computing Atmospheric mass density...
Loading historical data...
Loading historical data...
Loading historical data...
Loading historical data...
Loading historical data...
Loading historical data...
Loading historical data...

Documentation

Showing up to 5 results
|